Orient Glider Airport

Jump to: basic info | weather | comments

Related pages: nearby airports | nearby navaids | notams | map

Basic information (top)

Codes: FAOI
Location: lon -26.039400, lat 27.595600, elev 5,102 ft / 1,555 m msl
Status: small_airport

Weather (top)

Current conditions for Lanseria Airport 19nm (35km) ENE (rec'd 2015/04/19 20:00Z):

FALA 192000Z 00000KT CAVOK 14/12 Q1023 NOSIG

Airport forecast for Lanseria Airport 19nm (35km) ENE (rec'd 2015/04/19 12:00Z):

TAF FALA 191500Z 1912/2012 30014KT 9999 SCT035 PROB30 
      TEMPO 1912/1918 -TSRA FEW040CB 
     FM191700 30005KT CAVOK 
      BECMG 1920/1922 VRB03KT 
     FM200900 30013KT 9999 SCT045 TX22/2012ZTN12/2004Z

Latest comments (top)

Runway Orientation and Airfield Frequency: Runway 36/18 (Main) Runway 11/29 Airfi ... [read]

More... (top)

See also NOTAMs and nearby airports and navaids, or visit the Orient Glider Airport page at the main OurAirports website..